カタログに戻る

YAOGAN 7 DEB

運用中軍事PO
NORAD 38265·DEBRIS·🇨🇳 China

打ち上げ Dec 9, 2009 から Jiuquan Satellite Launch Center

Loading…

次のパス (今後24時間)

TLE

最新Source: Space-Track

元期: Sep 11, 2026, 15:55 UTC

1 38265U 09069B   26254.66353835  .00001443  00000-0  42010-3 0  9998
2 38265  97.8219 148.9767 0208732  14.5426 346.1643 14.33661300864572

AllMySatでYAOGAN 7 DEBをリアルタイム追跡

Download on the App Store